Time,TemperatureF,DewpointF,PressureIn,WindDirection,WindDirectionDegrees,WindSpeedMPH,WindSpeedGustMPH,Humidity,HourlyPrecipIn,Conditions,Clouds,dailyrainin,SolarRadiationWatts/m^2,SoftwareType,DateUTC
2013-04-24 00:12:00,32.0,24.0,-100.00,NW,312,11.0,16.0,73,0.00,,,0.00,0.000000,,2013-04-24 05:12:00,
2013-04-24 00:22:00,32.0,24.0,-100.00,NW,312,11.0,16.0,73,0.00,,,0.00,0.000000,,2013-04-24 05:22:00,
2013-04-24 00:32:00,32.0,24.0,-100.00,NW,312,11.0,16.0,73,0.00,,,0.00,0.000000,,2013-04-24 05:32:00,
2013-04-24 00:42:00,32.0,24.0,-100.00,NW,312,11.0,16.0,73,0.00,,,0.00,0.000000,,2013-04-24 05:42:00,
2013-04-24 01:12:00,32.0,25.0,-100.00,NW,310,12.0,16.0,76,0.00,,,0.00,0.000000,,2013-04-24 06:12:00,
2013-04-24 01:21:00,32.0,25.0,-100.00,NW,310,12.0,16.0,76,0.00,,,0.00,0.000000,,2013-04-24 06:21:00,
2013-04-24 01:32:00,32.0,25.0,-100.00,NW,310,12.0,16.0,76,0.00,,,0.00,0.000000,,2013-04-24 06:32:00,
2013-04-24 01:42:00,32.0,25.0,-100.00,NW,310,12.0,16.0,76,0.00,,,0.00,0.000000,,2013-04-24 06:42:00,
2013-04-24 02:11:00,31.0,24.0,-100.00,NW,305,12.0,15.0,74,0.00,,,0.00,0.000000,,2013-04-24 07:11:00,
2013-04-24 02:22:00,31.0,24.0,-100.00,NW,305,12.0,15.0,74,0.00,,,0.00,0.000000,,2013-04-24 07:22:00,
2013-04-24 02:32:00,31.0,24.0,-100.00,NW,305,12.0,15.0,74,0.00,,,0.00,0.000000,,2013-04-24 07:32:00,
2013-04-24 02:42:00,31.0,24.0,-100.00,NW,305,12.0,15.0,74,0.00,,,0.00,0.000000,,2013-04-24 07:42:00,
2013-04-24 03:12:00,31.0,24.0,-100.00,NW,306,12.0,16.0,74,0.00,,,0.00,0.000000,,2013-04-24 08:12:00,
2013-04-24 03:21:00,31.0,24.0,-100.00,NW,306,12.0,16.0,74,0.00,,,0.00,0.000000,,2013-04-24 08:21:00,
2013-04-24 03:33:00,31.0,24.0,-100.00,NW,306,12.0,16.0,74,0.00,,,0.00,0.000000,,2013-04-24 08:33:00,
2013-04-24 03:42:00,31.0,24.0,-100.00,NW,306,12.0,16.0,74,0.00,,,0.00,0.000000,,2013-04-24 08:42:00,
2013-04-24 04:11:00,30.0,24.0,-100.00,NW,311,11.0,16.0,79,0.00,,,0.00,0.000000,,2013-04-24 09:11:00,
2013-04-24 04:21:00,30.0,24.0,-100.00,NW,311,11.0,16.0,79,0.00,,,0.00,0.000000,,2013-04-24 09:21:00,
2013-04-24 04:33:00,30.0,24.0,-100.00,NW,311,11.0,16.0,79,0.00,,,0.00,0.000000,,2013-04-24 09:33:00,
2013-04-24 04:42:00,30.0,24.0,-100.00,NW,311,11.0,16.0,79,0.00,,,0.00,0.000000,,2013-04-24 09:42:00,
2013-04-24 05:12:00,28.0,24.0,-100.00,WNW,297,10.0,14.0,84,0.00,,,0.00,0.000000,,2013-04-24 10:12:00,
2013-04-24 05:22:00,28.0,24.0,-100.00,WNW,297,10.0,14.0,84,0.00,,,0.00,0.000000,,2013-04-24 10:22:00,
2013-04-24 05:32:00,28.0,24.0,-100.00,WNW,297,10.0,14.0,84,0.00,,,0.00,0.000000,,2013-04-24 10:32:00,
2013-04-24 05:42:00,28.0,24.0,-100.00,WNW,297,10.0,14.0,84,0.00,,,0.00,0.000000,,2013-04-24 10:42:00,
2013-04-24 06:11:00,27.0,23.0,-100.00,West,278,8.0,11.0,85,0.00,,,0.00,0.000000,,2013-04-24 11:11:00,
2013-04-24 06:21:00,27.0,23.0,-100.00,West,278,8.0,11.0,85,0.00,,,0.00,0.000000,,2013-04-24 11:21:00,
2013-04-24 06:32:00,27.0,23.0,-100.00,West,278,8.0,11.0,85,0.00,,,0.00,0.000000,,2013-04-24 11:32:00,
2013-04-24 06:42:00,27.0,23.0,-100.00,West,278,8.0,11.0,85,0.00,,,0.00,0.000000,,2013-04-24 11:42:00,
2013-04-24 07:11:00,28.0,25.0,-100.00,West,263,8.0,11.0,87,0.00,,,0.00,6.000000,,2013-04-24 12:11:00,
2013-04-24 07:22:00,28.0,25.0,-100.00,West,263,8.0,11.0,87,0.00,,,0.00,6.000000,,2013-04-24 12:22:00,
2013-04-24 07:32:00,28.0,25.0,-100.00,West,263,8.0,11.0,87,0.00,,,0.00,6.000000,,2013-04-24 12:32:00,
2013-04-24 07:42:00,28.0,25.0,-100.00,West,263,8.0,11.0,87,0.00,,,0.00,6.000000,,2013-04-24 12:42:00,
2013-04-24 08:12:00,31.0,25.0,-100.00,West,260,8.0,11.0,78,0.00,,,0.00,107.000000,,2013-04-24 13:12:00,
2013-04-24 08:22:00,31.0,25.0,-100.00,West,260,8.0,11.0,78,0.00,,,0.00,107.000000,,2013-04-24 13:22:00,
2013-04-24 08:32:00,31.0,25.0,-100.00,West,260,8.0,11.0,78,0.00,,,0.00,107.000000,,2013-04-24 13:32:00,
2013-04-24 08:41:00,31.0,25.0,-100.00,West,260,8.0,11.0,78,0.00,,,0.00,107.000000,,2013-04-24 13:41:00,
2013-04-24 09:11:00,35.0,26.0,-100.00,WSW,252,8.0,12.0,68,0.00,,,0.00,314.000000,,2013-04-24 14:11:00,
2013-04-24 09:21:00,35.0,26.0,-100.00,WSW,252,8.0,12.0,68,0.00,,,0.00,314.000000,,2013-04-24 14:21:00,
2013-04-24 09:32:00,35.0,26.0,-100.00,WSW,252,8.0,12.0,68,0.00,,,0.00,314.000000,,2013-04-24 14:32:00,
2013-04-24 09:41:00,35.0,26.0,-100.00,WSW,252,8.0,12.0,68,0.00,,,0.00,314.000000,,2013-04-24 14:41:00,
2013-04-24 10:11:00,38.0,27.0,-100.00,WSW,246,9.0,13.0,63,0.00,,,0.00,538.000000,,2013-04-24 15:11:00,
2013-04-24 10:21:00,38.0,27.0,-100.00,WSW,246,9.0,13.0,63,0.00,,,0.00,538.000000,,2013-04-24 15:21:00,
2013-04-24 10:33:00,38.0,27.0,-100.00,WSW,246,9.0,13.0,63,0.00,,,0.00,538.000000,,2013-04-24 15:33:00,
2013-04-24 10:43:00,38.0,27.0,-100.00,WSW,246,9.0,13.0,63,0.00,,,0.00,538.000000,,2013-04-24 15:43:00,
2013-04-24 11:12:00,42.0,28.0,-100.00,WSW,248,10.0,15.0,57,0.00,,,0.00,736.000000,,2013-04-24 16:12:00,
2013-04-24 11:23:00,42.0,28.0,-100.00,WSW,248,10.0,15.0,57,0.00,,,0.00,736.000000,,2013-04-24 16:23:00,
2013-04-24 11:32:00,42.0,28.0,-100.00,WSW,248,10.0,15.0,57,0.00,,,0.00,736.000000,,2013-04-24 16:32:00,
2013-04-24 11:42:00,42.0,28.0,-100.00,WSW,248,10.0,15.0,57,0.00,,,0.00,736.000000,,2013-04-24 16:42:00,
2013-04-24 12:12:00,46.0,28.0,-100.00,WNW,288,10.0,20.0,49,0.00,,,0.00,915.000000,,2013-04-24 17:12:00,
2013-04-24 12:22:00,46.0,28.0,-100.00,WNW,288,10.0,20.0,49,0.00,,,0.00,915.000000,,2013-04-24 17:22:00,
2013-04-24 12:32:00,46.0,28.0,-100.00,WNW,288,10.0,20.0,49,0.00,,,0.00,915.000000,,2013-04-24 17:32:00,
2013-04-24 12:42:00,46.0,28.0,-100.00,WNW,288,10.0,20.0,49,0.00,,,0.00,915.000000,,2013-04-24 17:42:00,
2013-04-24 13:12:00,48.0,26.0,-100.00,West,269,11.0,26.0,42,0.00,,,0.00,1032.000000,,2013-04-24 18:12:00,
2013-04-24 13:22:00,48.0,26.0,-100.00,West,269,11.0,26.0,42,0.00,,,0.00,1032.000000,,2013-04-24 18:22:00,
2013-04-24 13:33:00,48.0,26.0,-100.00,West,269,11.0,26.0,42,0.00,,,0.00,1032.000000,,2013-04-24 18:33:00,
2013-04-24 13:42:00,48.0,26.0,-100.00,West,269,11.0,26.0,42,0.00,,,0.00,1032.000000,,2013-04-24 18:42:00,
2013-04-24 14:11:00,51.0,26.0,-100.00,WSW,238,14.0,22.0,37,0.00,,,0.00,1079.000000,,2013-04-24 19:11:00,
2013-04-24 14:22:00,51.0,26.0,-100.00,WSW,238,14.0,22.0,37,0.00,,,0.00,1079.000000,,2013-04-24 19:22:00,
2013-04-24 14:32:00,51.0,26.0,-100.00,WSW,238,14.0,22.0,37,0.00,,,0.00,1079.000000,,2013-04-24 19:32:00,
2013-04-24 14:42:00,51.0,26.0,-100.00,WSW,238,14.0,22.0,37,0.00,,,0.00,1079.000000,,2013-04-24 19:42:00,
2013-04-24 15:11:00,52.0,25.0,-100.00,WSW,246,17.0,26.0,35,0.00,,,0.00,1051.000000,,2013-04-24 20:11:00,
2013-04-24 15:22:00,52.0,25.0,-100.00,WSW,246,17.0,26.0,35,0.00,,,0.00,1051.000000,,2013-04-24 20:22:00,
2013-04-24 15:32:00,52.0,25.0,-100.00,WSW,246,17.0,26.0,35,0.00,,,0.00,1051.000000,,2013-04-24 20:32:00,
2013-04-24 15:42:00,52.0,25.0,-100.00,WSW,246,17.0,26.0,35,0.00,,,0.00,1051.000000,,2013-04-24 20:42:00,
2013-04-24 16:11:00,53.0,23.0,-100.00,SW,221,19.0,28.0,31,0.00,,,0.00,951.000000,,2013-04-24 21:11:00,
2013-04-24 16:21:00,53.0,23.0,-100.00,SW,221,19.0,28.0,31,0.00,,,0.00,951.000000,,2013-04-24 21:21:00,
2013-04-24 16:33:00,53.0,23.0,-100.00,SW,221,19.0,28.0,31,0.00,,,0.00,951.000000,,2013-04-24 21:33:00,
2013-04-24 16:42:00,53.0,23.0,-100.00,SW,221,19.0,28.0,31,0.00,,,0.00,951.000000,,2013-04-24 21:42:00,
2013-04-24 17:12:00,55.0,23.0,-100.00,WSW,241,19.0,30.0,29,0.00,,,0.00,789.000000,,2013-04-24 22:12:00,
2013-04-24 17:22:00,55.0,23.0,-100.00,WSW,241,19.0,30.0,29,0.00,,,0.00,789.000000,,2013-04-24 22:22:00,
2013-04-24 17:33:00,55.0,23.0,-100.00,WSW,241,19.0,30.0,29,0.00,,,0.00,789.000000,,2013-04-24 22:33:00,
2013-04-24 17:42:00,55.0,23.0,-100.00,WSW,241,19.0,30.0,29,0.00,,,0.00,789.000000,,2013-04-24 22:42:00,
2013-04-24 18:12:00,54.0,23.0,-100.00,WSW,242,19.0,27.0,30,0.00,,,0.00,589.000000,,2013-04-24 23:12:00,
2013-04-24 18:21:00,54.0,23.0,-100.00,WSW,242,19.0,27.0,30,0.00,,,0.00,589.000000,,2013-04-24 23:21:00,
2013-04-24 18:32:00,54.0,23.0,-100.00,WSW,242,19.0,27.0,30,0.00,,,0.00,589.000000,,2013-04-24 23:32:00,
2013-04-24 18:42:00,54.0,23.0,-100.00,WSW,242,19.0,27.0,30,0.00,,,0.00,589.000000,,2013-04-24 23:42:00,
2013-04-24 19:12:00,54.0,26.0,-100.00,SW,236,18.0,27.0,34,0.00,,,0.00,351.000000,,2013-04-25 00:12:00,
2013-04-24 19:22:00,54.0,26.0,-100.00,SW,236,18.0,27.0,34,0.00,,,0.00,351.000000,,2013-04-25 00:22:00,
2013-04-24 19:32:00,54.0,26.0,-100.00,SW,236,18.0,27.0,34,0.00,,,0.00,351.000000,,2013-04-25 00:32:00,
2013-04-24 19:42:00,54.0,26.0,-100.00,SW,236,18.0,27.0,34,0.00,,,0.00,351.000000,,2013-04-25 00:42:00,
2013-04-24 20:11:00,50.0,28.0,-100.00,SSW,206,13.0,29.0,43,0.00,,,0.00,105.000000,,2013-04-25 01:11:00,
2013-04-24 20:23:00,50.0,28.0,-100.00,SSW,206,13.0,29.0,43,0.00,,,0.00,105.000000,,2013-04-25 01:23:00,
2013-04-24 20:32:00,50.0,28.0,-100.00,SSW,206,13.0,29.0,43,0.00,,,0.00,105.000000,,2013-04-25 01:32:00,
2013-04-24 20:42:00,50.0,28.0,-100.00,SSW,206,13.0,29.0,43,0.00,,,0.00,105.000000,,2013-04-25 01:42:00,
2013-04-24 21:11:00,50.0,31.0,-100.00,West,261,25.0,33.0,48,0.00,,,0.00,2.000000,,2013-04-25 02:11:00,
2013-04-24 21:22:00,50.0,31.0,-100.00,West,261,25.0,33.0,48,0.00,,,0.00,2.000000,,2013-04-25 02:22:00,
2013-04-24 21:32:00,50.0,31.0,-100.00,West,261,25.0,33.0,48,0.00,,,0.00,2.000000,,2013-04-25 02:32:00,
2013-04-24 21:42:00,50.0,31.0,-100.00,West,261,25.0,33.0,48,0.00,,,0.00,2.000000,,2013-04-25 02:42:00,
2013-04-24 23:12:00,43.0,40.0,-100.00,SW,228,11.0,35.0,88,-99.99,,,0.08,0.000000,,2013-04-25 04:12:00,
2013-04-24 23:23:00,43.0,40.0,-100.00,SW,228,11.0,35.0,88,-99.99,,,0.08,0.000000,,2013-04-25 04:23:00,
2013-04-24 23:32:00,43.0,40.0,-100.00,SW,228,11.0,35.0,88,-99.99,,,0.08,0.000000,,2013-04-25 04:32:00,
2013-04-24 23:43:00,43.0,40.0,-100.00,SW,228,11.0,35.0,88,-99.99,,,0.08,0.000000,,2013-04-25 04:43:00,